TAM1316 SBCY-SBGR

Flight info

Callsign TAM1316
Flight time N/A
Altitude 37000
Route DIKUN UZ82 ANSOK UZ42 ZARES
Aircraft A319/M-SDE3FGHIRWY/LB1

Departure

Time 2026-04-12 04:18
Airport Várzea Grande–Marechal Rondon International Airport (SBCY)

Arrival

Time N/A
Airport São Paulo/Guarulhos–Governor André Franco Montoro International Airport (SBGR)
Time Latitude Longitude Altitude Speed Heading
2026-04-12 03:52 -15.65022 -56.12003 619 ft 0 kts 243°
2026-04-12 04:10 -15.65021 -56.12002 619 ft 0 kts 243°
2026-04-12 04:11 -15.65018 -56.11995 619 ft 2 kts 243°
2026-04-12 04:11 -15.65012 -56.11982 618 ft 0 kts 243°
2026-04-12 04:11 -15.65005 -56.11972 618 ft 2 kts 218°
2026-04-12 04:11 -15.64992 -56.11965 618 ft 2 kts 189°
2026-04-12 04:12 -15.64977 -56.11966 618 ft 1 kts 160°
2026-04-12 04:12 -15.64972 -56.11969 619 ft 1 kts 153°
2026-04-12 04:12 -15.64970 -56.11969 619 ft 0 kts 154°
2026-04-12 04:13 -15.64978 -56.11966 618 ft 4 kts 154°
2026-04-12 04:14 -15.65029 -56.11940 617 ft 10 kts 153°
2026-04-12 04:14 -15.65076 -56.11914 617 ft 0 kts 153°
2026-04-12 04:14 -15.65079 -56.11912 617 ft 0 kts 143°
2026-04-12 04:15 -15.65088 -56.11904 617 ft 5 kts 131°
2026-04-12 04:15 -15.65068 -56.11841 615 ft 14 kts 61°
2026-04-12 04:15 -15.65002 -56.11824 615 ft 10 kts 332°
2026-04-12 04:15 -15.64926 -56.11864 617 ft 14 kts 332°
2026-04-12 04:16 -15.64828 -56.11916 620 ft 17 kts 333°
2026-04-12 04:16 -15.64709 -56.11979 622 ft 21 kts 333°
2026-04-12 04:16 -15.64569 -56.12054 625 ft 23 kts 333°
2026-04-12 04:16 -15.64445 -56.12132 629 ft 12 kts 308°
2026-04-12 04:17 -15.64418 -56.12174 630 ft 8 kts 328°
2026-04-12 04:17 -15.64386 -56.12151 630 ft 2 kts 130°
2026-04-12 04:17 -15.64391 -56.12148 630 ft 0 kts 151°
2026-04-12 04:17 -15.64391 -56.12147 630 ft 1 kts 150°
2026-04-12 04:18 -15.64504 -56.12089 627 ft 54 kts 153°
2026-04-12 04:18 -15.64848 -56.11907 620 ft 109 kts 153°
2026-04-12 04:18 -15.66060 -56.11264 972 ft 162 kts 153°
2026-04-12 04:18 -15.67060 -56.10756 1822 ft 159 kts 154°
2026-04-12 04:19 -15.68009 -56.10231 2666 ft 160 kts 143°
2026-04-12 04:19 -15.68791 -56.09357 3255 ft 170 kts 123°
2026-04-12 04:19 -15.69456 -56.08270 3645 ft 187 kts 125°
2026-04-12 04:19 -15.70268 -56.07122 4065 ft 206 kts 127°
2026-04-12 04:20 -15.71174 -56.05901 4546 ft 224 kts 128°
2026-04-12 04:20 -15.72196 -56.04550 5062 ft 243 kts 128°
2026-04-12 04:20 -15.73289 -56.03119 5574 ft 261 kts 128°
2026-04-12 04:20 -15.74451 -56.01604 6265 ft 272 kts 128°
2026-04-12 04:21 -15.75638 -56.00062 7161 ft 274 kts 128°
2026-04-12 04:21 -15.76839 -55.98503 8023 ft 276 kts 127°
2026-04-12 04:21 -15.78031 -55.96954 8826 ft 280 kts 127°
2026-04-12 04:21 -15.79263 -55.95354 9615 ft 283 kts 127°
2026-04-12 04:22 -15.80504 -55.93742 10359 ft 287 kts 126°
2026-04-12 04:22 -15.81791 -55.92065 10796 ft 303 kts 126°
2026-04-12 04:22 -15.83157 -55.90283 11123 ft 322 kts 126°
2026-04-12 04:22 -15.84583 -55.88419 11474 ft 339 kts 126°
2026-04-12 04:23 -15.86093 -55.86440 12110 ft 346 kts 126°
2026-04-12 04:23 -15.87623 -55.84443 12863 ft 350 kts 126°
2026-04-12 04:23 -15.89187 -55.82402 13566 ft 354 kts 126°
2026-04-12 04:23 -15.90738 -55.80379 14224 ft 359 kts 126°
2026-04-12 04:24 -15.92341 -55.78290 14879 ft 364 kts 126°
2026-04-12 04:24 -15.93941 -55.76203 15504 ft 368 kts 126°
2026-04-12 04:24 -15.95561 -55.74092 16106 ft 372 kts 126°
2026-04-12 04:24 -15.97205 -55.71949 16693 ft 377 kts 126°
2026-04-12 04:25 -15.98866 -55.69783 17261 ft 381 kts 126°
2026-04-12 04:25 -16.00574 -55.67554 17823 ft 385 kts 126°
2026-04-12 04:25 -16.02285 -55.65322 18389 ft 389 kts 126°
2026-04-12 04:25 -16.03968 -55.63126 19037 ft 389 kts 126°
2026-04-12 04:26 -16.05693 -55.60875 19579 ft 392 kts 126°
2026-04-12 04:26 -16.07437 -55.58597 20065 ft 397 kts 126°
2026-04-12 04:26 -16.09155 -55.56325 20753 ft 394 kts 128°
2026-04-12 04:26 -16.10848 -55.54110 21484 ft 390 kts 128°
2026-04-12 04:27 -16.12569 -55.51867 21975 ft 392 kts 128°
2026-04-12 04:27 -16.14285 -55.49629 22403 ft 396 kts 128°
2026-04-12 04:27 -16.16041 -55.47336 22848 ft 398 kts 128°
2026-04-12 04:27 -16.17771 -55.45074 23278 ft 401 kts 128°
2026-04-12 04:28 -16.19548 -55.42751 23704 ft 404 kts 128°
2026-04-12 04:28 -16.21318 -55.40436 24115 ft 406 kts 128°
2026-04-12 04:28 -16.23128 -55.38066 24522 ft 409 kts 128°
2026-04-12 04:28 -16.24919 -55.35721 24912 ft 411 kts 128°
2026-04-12 04:29 -16.26764 -55.33304 25299 ft 414 kts 128°
2026-04-12 04:29 -16.28486 -55.31047 25650 ft 416 kts 128°
2026-04-12 04:29 -16.30301 -55.28668 26010 ft 418 kts 128°
2026-04-12 04:29 -16.32123 -55.26279 26360 ft 421 kts 128°
2026-04-12 04:30 -16.33977 -55.23847 26706 ft 423 kts 128°
2026-04-12 04:30 -16.35838 -55.21404 27044 ft 425 kts 128°
2026-04-12 04:30 -16.37679 -55.18988 27368 ft 427 kts 128°
2026-04-12 04:30 -16.39521 -55.16569 27684 ft 429 kts 128°
2026-04-12 04:31 -16.41441 -55.14048 28004 ft 431 kts 128°
2026-04-12 04:31 -16.43351 -55.11537 28313 ft 433 kts 128°
2026-04-12 04:31 -16.45276 -55.09007 28617 ft 436 kts 128°
2026-04-12 04:31 -16.47198 -55.06480 28912 ft 438 kts 128°
2026-04-12 04:32 -16.49105 -55.03970 29198 ft 439 kts 128°
2026-04-12 04:32 -16.51044 -55.01420 29476 ft 441 kts 128°
2026-04-12 04:32 -16.52990 -54.98857 29778 ft 443 kts 128°
2026-04-12 04:32 -16.54912 -54.96326 30154 ft 441 kts 128°
2026-04-12 04:33 -16.56766 -54.93895 30520 ft 440 kts 129°
2026-04-12 04:33 -16.58717 -54.91345 30878 ft 439 kts 129°
2026-04-12 04:33 -16.60609 -54.88864 31204 ft 439 kts 128°
2026-04-12 04:33 -16.62535 -54.86322 31527 ft 438 kts 128°
2026-04-12 04:34 -16.64411 -54.83839 31838 ft 438 kts 128°
2026-04-12 04:34 -16.66301 -54.81338 32145 ft 437 kts 128°
2026-04-12 04:34 -16.68189 -54.78840 32445 ft 436 kts 128°
2026-04-12 04:34 -16.70054 -54.76373 32733 ft 436 kts 128°
2026-04-12 04:35 -16.71953 -54.73863 33017 ft 435 kts 128°
2026-04-12 04:35 -16.73845 -54.71361 33294 ft 435 kts 128°
2026-04-12 04:35 -16.75754 -54.68837 33566 ft 434 kts 128°
2026-04-12 04:35 -16.77640 -54.66343 33827 ft 434 kts 128°
2026-04-12 04:36 -16.79542 -54.63827 34084 ft 433 kts 128°
2026-04-12 04:36 -16.81417 -54.61345 34329 ft 433 kts 128°
2026-04-12 04:36 -16.83302 -54.58850 34566 ft 432 kts 128°
2026-04-12 04:36 -16.85188 -54.56351 34799 ft 432 kts 128°
2026-04-12 04:37 -16.87048 -54.53888 35024 ft 431 kts 128°
2026-04-12 04:37 -16.88911 -54.51418 35241 ft 431 kts 128°
2026-04-12 04:37 -16.90777 -54.48944 35451 ft 431 kts 128°
2026-04-12 04:37 -16.92623 -54.46495 35649 ft 430 kts 128°
2026-04-12 04:38 -16.94496 -54.44011 35843 ft 430 kts 128°
2026-04-12 04:38 -16.96332 -54.41574 36025 ft 430 kts 128°
2026-04-12 04:38 -16.98183 -54.39117 36200 ft 429 kts 128°
2026-04-12 04:38 -17.00035 -54.36657 36367 ft 429 kts 128°
2026-04-12 04:39 -17.01857 -54.34237 36521 ft 429 kts 128°
2026-04-12 04:39 -17.03715 -54.31767 36669 ft 429 kts 128°
2026-04-12 04:39 -17.05560 -54.29314 36810 ft 429 kts 128°
2026-04-12 04:39 -17.07412 -54.26851 36947 ft 429 kts 128°
2026-04-12 04:40 -17.09236 -54.24423 36977 ft 432 kts 128°
2026-04-12 04:40 -17.13036 -54.19364 36986 ft 438 kts 128°
2026-04-12 04:41 -17.16894 -54.14223 36985 ft 441 kts 128°
2026-04-12 04:41 -17.18474 -54.12117 36986 ft 441 kts 128°
2026-04-12 04:42 -17.21468 -54.08122 36986 ft 441 kts 128°
2026-04-12 04:42 -17.24255 -54.04402 36986 ft 441 kts 128°
2026-04-12 04:43 -17.28006 -53.99416 36985 ft 441 kts 129°
2026-04-12 04:43 -17.30715 -53.96201 36985 ft 441 kts 134°
2026-04-12 04:44 -17.33328 -53.93515 36985 ft 441 kts 137°
2026-04-12 04:44 -17.35343 -53.91570 36985 ft 441 kts 137°
2026-04-12 04:45 -17.38674 -53.88376 36986 ft 441 kts 137°
2026-04-12 04:45 -17.43197 -53.84013 36986 ft 441 kts 137°
2026-04-12 04:46 -17.47695 -53.79675 36986 ft 441 kts 137°
2026-04-12 04:46 -17.52196 -53.75337 36986 ft 441 kts 137°
2026-04-12 04:47 -17.56753 -53.70948 36986 ft 441 kts 137°
2026-04-12 04:47 -17.61295 -53.66594 36986 ft 441 kts 137°
2026-04-12 04:48 -17.65844 -53.62217 36986 ft 441 kts 137°
2026-04-12 04:48 -17.70215 -53.57999 36986 ft 441 kts 137°
2026-04-12 04:49 -17.74188 -53.54160 36986 ft 441 kts 137°
2026-04-12 04:49 -17.78750 -53.49747 36986 ft 441 kts 137°
2026-04-12 04:50 -17.83287 -53.45356 36986 ft 441 kts 137°
2026-04-12 04:50 -17.87814 -53.40971 36986 ft 441 kts 137°
2026-04-12 04:51 -17.92253 -53.36668 36986 ft 441 kts 137°
2026-04-12 04:51 -17.96747 -53.32308 36986 ft 441 kts 137°
2026-04-12 04:52 -18.01287 -53.27900 36986 ft 441 kts 137°
2026-04-12 04:52 -18.05797 -53.23519 36986 ft 441 kts 137°
2026-04-12 04:53 -18.10293 -53.19148 36986 ft 441 kts 137°
2026-04-12 04:54 -18.17088 -53.12535 36986 ft 441 kts 137°
2026-04-12 04:54 -18.21482 -53.08255 36986 ft 441 kts 137°
2026-04-12 04:55 -18.26102 -53.03752 36986 ft 441 kts 137°
2026-04-12 04:55 -18.30750 -52.99217 36986 ft 441 kts 137°
2026-04-12 04:56 -18.35393 -52.94685 36986 ft 441 kts 137°
2026-04-12 04:56 -18.39937 -52.90245 36985 ft 441 kts 137°
2026-04-12 04:57 -18.44448 -52.85812 36986 ft 441 kts 137°
2026-04-12 04:57 -18.48972 -52.81366 36986 ft 441 kts 137°
2026-04-12 04:58 -18.53469 -52.76956 36986 ft 441 kts 137°
2026-04-12 04:58 -18.57983 -52.72545 36986 ft 441 kts 137°
2026-04-12 04:59 -18.62490 -52.68148 36986 ft 441 kts 137°
2026-04-12 04:59 -18.66968 -52.63762 36986 ft 441 kts 137°
2026-04-12 05:00 -18.71496 -52.59317 36986 ft 441 kts 137°
2026-04-12 05:00 -18.75375 -52.55505 36986 ft 441 kts 137°
2026-04-12 05:01 -18.79837 -52.51115 36986 ft 441 kts 137°
2026-04-12 05:01 -18.84329 -52.46690 36986 ft 441 kts 137°
2026-04-12 05:02 -18.88809 -52.42276 36986 ft 441 kts 137°
2026-04-12 05:02 -18.93277 -52.37867 36986 ft 441 kts 137°
2026-04-12 05:03 -18.97759 -52.33433 36986 ft 441 kts 137°
2026-04-12 05:03 -19.02238 -52.28996 36986 ft 441 kts 137°
2026-04-12 05:04 -19.06703 -52.24568 36986 ft 441 kts 137°
2026-04-12 05:04 -19.11189 -52.20114 36986 ft 441 kts 137°
2026-04-12 05:05 -19.15616 -52.15717 36986 ft 441 kts 137°
2026-04-12 05:05 -19.20110 -52.11249 36986 ft 441 kts 137°
2026-04-12 05:06 -19.24577 -52.06806 36986 ft 441 kts 137°
2026-04-12 05:06 -19.29028 -52.02373 36986 ft 441 kts 137°
2026-04-12 05:07 -19.33500 -51.97917 36986 ft 441 kts 137°
2026-04-12 05:07 -19.37943 -51.93486 36985 ft 441 kts 137°
2026-04-12 05:08 -19.42427 -51.89008 36986 ft 441 kts 136°
2026-04-12 05:08 -19.46852 -51.84562 36986 ft 441 kts 136°
2026-04-12 05:09 -19.51314 -51.80089 36986 ft 441 kts 136°
2026-04-12 05:09 -19.55763 -51.75639 36986 ft 441 kts 136°
2026-04-12 05:10 -19.60227 -51.71196 36986 ft 441 kts 136°
2026-04-12 05:10 -19.64680 -51.66743 36986 ft 441 kts 136°
2026-04-12 05:11 -19.69288 -51.62439 36986 ft 441 kts 140°
2026-04-12 05:11 -19.73987 -51.58276 36987 ft 441 kts 140°
2026-04-12 05:12 -19.78709 -51.54091 36986 ft 441 kts 140°
2026-04-12 05:12 -19.83407 -51.49919 36986 ft 441 kts 140°
2026-04-12 05:13 -19.88091 -51.45752 36986 ft 441 kts 140°
2026-04-12 05:13 -19.92795 -51.41563 36986 ft 441 kts 140°
2026-04-12 05:14 -19.97490 -51.37380 36986 ft 441 kts 140°
2026-04-12 05:14 -20.02179 -51.33197 36986 ft 441 kts 140°
2026-04-12 05:15 -20.06851 -51.29026 36986 ft 441 kts 140°
2026-04-12 05:15 -20.11547 -51.24830 36986 ft 441 kts 140°
2026-04-12 05:16 -20.16259 -51.20616 36986 ft 441 kts 140°
2026-04-12 05:16 -20.20933 -51.16431 36986 ft 441 kts 140°
2026-04-12 05:17 -20.25631 -51.12223 36986 ft 441 kts 140°
2026-04-12 05:17 -20.30297 -51.08046 36986 ft 441 kts 140°
2026-04-12 05:18 -20.35008 -51.03824 36986 ft 441 kts 140°
2026-04-12 05:18 -20.39663 -50.99646 36986 ft 441 kts 140°
2026-04-12 05:19 -20.44360 -50.95426 36985 ft 441 kts 140°
2026-04-12 05:19 -20.49051 -50.91208 36985 ft 440 kts 140°
2026-04-12 05:20 -20.53706 -50.87004 36986 ft 440 kts 140°
2026-04-12 05:20 -20.58343 -50.82819 36986 ft 440 kts 140°
2026-04-12 05:21 -20.63005 -50.78628 36986 ft 440 kts 140°
2026-04-12 05:21 -20.67682 -50.74414 36986 ft 440 kts 140°
2026-04-12 05:22 -20.72375 -50.70175 36986 ft 440 kts 140°
2026-04-12 05:22 -20.77039 -50.65960 36986 ft 440 kts 140°
2026-04-12 05:23 -20.81690 -50.61745 36986 ft 440 kts 140°
2026-04-12 05:23 -20.86335 -50.57521 36986 ft 440 kts 140°
2026-04-12 05:24 -20.90693 -50.53555 36986 ft 440 kts 140°
2026-04-12 05:24 -20.95480 -50.49194 36986 ft 440 kts 140°
2026-04-12 05:25 -21.00081 -50.44999 36986 ft 440 kts 140°
2026-04-12 05:25 -21.04326 -50.41127 36986 ft 440 kts 140°
2026-04-12 05:26 -21.09344 -50.36543 36986 ft 440 kts 140°
2026-04-12 05:26 -21.13634 -50.32622 36986 ft 440 kts 140°
2026-04-12 05:27 -21.18615 -50.28065 36986 ft 440 kts 140°
2026-04-12 05:27 -21.23202 -50.23865 36986 ft 440 kts 140°
2026-04-12 05:28 -21.27853 -50.19602 36986 ft 440 kts 140°
2026-04-12 05:28 -21.32507 -50.15333 36986 ft 440 kts 140°
2026-04-12 05:29 -21.37132 -50.11086 36986 ft 440 kts 140°
2026-04-12 05:29 -21.41735 -50.06855 36986 ft 440 kts 140°
2026-04-12 05:30 -21.46155 -50.02791 36985 ft 440 kts 140°
2026-04-12 05:30 -21.51018 -49.98321 36985 ft 440 kts 140°
2026-04-12 05:31 -21.55573 -49.94129 36985 ft 440 kts 140°
2026-04-12 05:31 -21.60225 -49.89867 36986 ft 440 kts 139°
2026-04-12 05:32 -21.64572 -49.85849 36986 ft 440 kts 139°
2026-04-12 05:32 -21.69433 -49.81346 36986 ft 440 kts 139°
2026-04-12 05:33 -21.73606 -49.77486 36986 ft 440 kts 139°
2026-04-12 05:33 -21.78321 -49.73124 36986 ft 440 kts 139°
2026-04-12 05:34 -21.82961 -49.68828 36986 ft 440 kts 139°
2026-04-12 05:34 -21.87615 -49.64516 36986 ft 440 kts 139°
2026-04-12 05:35 -21.92236 -49.60230 36986 ft 440 kts 139°
2026-04-12 05:35 -21.96773 -49.56015 36986 ft 440 kts 139°
2026-04-12 05:36 -22.01429 -49.51678 36986 ft 440 kts 139°
2026-04-12 05:36 -22.06002 -49.47413 36986 ft 440 kts 139°
2026-04-12 05:37 -22.10738 -49.42991 36986 ft 440 kts 139°
2026-04-12 05:37 -22.15353 -49.38679 36986 ft 440 kts 139°
2026-04-12 05:38 -22.19978 -49.34353 36986 ft 440 kts 139°
2026-04-12 05:38 -22.24605 -49.30022 36986 ft 440 kts 139°
2026-04-12 05:39 -22.29248 -49.25670 36986 ft 440 kts 139°
2026-04-12 05:39 -22.33305 -49.21812 36985 ft 440 kts 136°
2026-04-12 05:40 -22.37791 -49.16248 36985 ft 440 kts 125°
2026-04-12 05:40 -22.40604 -49.11162 36985 ft 440 kts 116°
2026-04-12 05:41 -22.42878 -49.05006 36986 ft 440 kts 109°
2026-04-12 05:41 -22.44797 -48.98731 36985 ft 440 kts 108°
2026-04-12 05:42 -22.46710 -48.92468 36985 ft 440 kts 108°
2026-04-12 05:42 -22.48640 -48.86175 36986 ft 440 kts 108°
2026-04-12 05:43 -22.51290 -48.77533 36986 ft 440 kts 108°
2026-04-12 05:43 -22.53222 -48.71240 36986 ft 440 kts 108°
2026-04-12 05:44 -22.55148 -48.64966 36986 ft 440 kts 108°
2026-04-12 05:44 -22.57091 -48.58709 36986 ft 440 kts 108°
2026-04-12 05:45 -22.59017 -48.52448 36986 ft 440 kts 108°
2026-04-12 05:45 -22.60931 -48.46174 36986 ft 440 kts 108°
2026-04-12 05:46 -22.62682 -48.40625 36986 ft 440 kts 109°
2026-04-12 05:46 -22.64757 -48.34132 36908 ft 441 kts 109°
2026-04-12 05:47 -22.65757 -48.30993 36269 ft 444 kts 109°
2026-04-12 05:47 -22.66753 -48.27855 35660 ft 444 kts 109°
2026-04-12 05:47 -22.67749 -48.24709 35031 ft 444 kts 109°
2026-04-12 05:47 -22.68752 -48.21540 34391 ft 444 kts 109°
2026-04-12 05:48 -22.69754 -48.18366 33748 ft 444 kts 109°
2026-04-12 05:48 -22.70748 -48.15217 33105 ft 444 kts 109°
2026-04-12 05:48 -22.71741 -48.12066 32454 ft 444 kts 109°
2026-04-12 05:48 -22.72735 -48.08911 31797 ft 444 kts 109°
2026-04-12 05:49 -22.73723 -48.05776 31139 ft 444 kts 109°
2026-04-12 05:49 -22.74684 -48.02577 30460 ft 445 kts 107°
2026-04-12 05:49 -22.75607 -47.99383 29777 ft 445 kts 109°
2026-04-12 05:49 -22.76757 -47.96279 29081 ft 445 kts 115°
2026-04-12 05:50 -22.78187 -47.93337 28378 ft 446 kts 121°
2026-04-12 05:50 -22.79896 -47.90514 27668 ft 446 kts 125°
2026-04-12 05:50 -22.81666 -47.87814 27209 ft 440 kts 126°
2026-04-12 05:50 -22.83446 -47.85127 26739 ft 435 kts 126°
2026-04-12 05:51 -22.85174 -47.82518 26275 ft 430 kts 126°
2026-04-12 05:51 -22.86893 -47.79906 25993 ft 420 kts 125°
2026-04-12 05:51 -22.88537 -47.77354 25579 ft 417 kts 124°
2026-04-12 05:51 -22.90179 -47.74779 25102 ft 413 kts 124°
2026-04-12 05:52 -22.91811 -47.72219 24624 ft 410 kts 124°
2026-04-12 05:52 -22.93423 -47.69692 24148 ft 406 kts 124°
2026-04-12 05:52 -22.95010 -47.67209 23708 ft 403 kts 124°
2026-04-12 05:52 -22.96611 -47.64707 23331 ft 401 kts 124°
2026-04-12 05:53 -22.98198 -47.62224 22955 ft 399 kts 124°
2026-04-12 05:53 -22.99762 -47.59775 22581 ft 397 kts 124°
2026-04-12 05:53 -23.01334 -47.57313 22210 ft 394 kts 124°
2026-04-12 05:53 -23.02786 -47.55036 21974 ft 393 kts 124°
2026-04-12 05:54 -23.04330 -47.52616 21725 ft 392 kts 124°
2026-04-12 05:54 -23.05518 -47.50750 21533 ft 390 kts 124°
2026-04-12 05:54 -23.06798 -47.48741 21325 ft 389 kts 124°
2026-04-12 05:54 -23.08359 -47.46291 21080 ft 403 kts 124°
2026-04-12 05:55 -23.09976 -47.43748 21094 ft 415 kts 124°
2026-04-12 05:55 -23.11639 -47.41131 21134 ft 416 kts 124°
2026-04-12 05:55 -23.13283 -47.38542 21163 ft 416 kts 124°
2026-04-12 05:55 -23.14914 -47.35976 21038 ft 417 kts 124°
2026-04-12 05:56 -23.16565 -47.33378 20708 ft 413 kts 124°
2026-04-12 05:56 -23.18169 -47.30839 20384 ft 410 kts 122°
2026-04-12 05:56 -23.19342 -47.28070 20042 ft 405 kts 102°
2026-04-12 05:56 -23.19534 -47.24825 19766 ft 397 kts 79°
2026-04-12 05:57 -23.18729 -47.22033 19603 ft 388 kts 59°
2026-04-12 05:57 -23.17170 -47.19695 19484 ft 381 kts 44°
2026-04-12 05:57 -23.15346 -47.17590 19359 ft 380 kts 42°
2026-04-12 05:57 -23.13530 -47.15540 19236 ft 379 kts 43°
2026-04-12 05:58 -23.11721 -47.13467 19208 ft 379 kts 43°
2026-04-12 05:58 -23.09915 -47.11364 19204 ft 379 kts 44°
2026-04-12 05:58 -23.08127 -47.09266 19203 ft 379 kts 44°
2026-04-12 05:58 -23.06330 -47.07149 19104 ft 381 kts 44°
2026-04-12 05:59 -23.04541 -47.05043 18588 ft 376 kts 44°
2026-04-12 05:59 -23.02780 -47.02969 17921 ft 370 kts 44°
2026-04-12 05:59 -23.01054 -47.00939 17248 ft 365 kts 44°
2026-04-12 05:59 -22.99344 -46.98931 16569 ft 358 kts 45°
2026-04-12 06:00 -22.97683 -46.96981 15898 ft 352 kts 45°
2026-04-12 06:00 -22.96040 -46.95054 15223 ft 346 kts 46°
2026-04-12 06:00 -22.94425 -46.93160 14602 ft 341 kts 46°
2026-04-12 06:00 -22.92807 -46.91262 14269 ft 341 kts 47°
2026-04-12 06:01 -22.91227 -46.89372 14209 ft 341 kts 52°
2026-04-12 06:01 -22.90094 -46.87112 14189 ft 343 kts 73°
2026-04-12 06:01 -22.89798 -46.84545 14175 ft 346 kts 95°
2026-04-12 06:01 -22.90385 -46.82012 13891 ft 346 kts 117°
2026-04-12 06:02 -22.91798 -46.79904 13964 ft 348 kts 137°
2026-04-12 06:02 -22.93633 -46.78225 13642 ft 349 kts 143°
2026-04-12 06:02 -22.95554 -46.76614 13189 ft 347 kts 144°
2026-04-12 06:02 -22.97460 -46.75027 12736 ft 345 kts 144°
2026-04-12 06:03 -22.99334 -46.73455 12285 ft 338 kts 143°
2026-04-12 06:03 -23.01174 -46.71898 11827 ft 329 kts 143°
2026-04-12 06:03 -23.02944 -46.70393 11334 ft 322 kts 142°
2026-04-12 06:04 -23.06200 -46.67609 10563 ft 306 kts 141°
2026-04-12 06:04 -23.07862 -46.66179 10224 ft 302 kts 141°
2026-04-12 06:04 -23.09514 -46.64756 9896 ft 300 kts 140°
2026-04-12 06:04 -23.11119 -46.63374 9576 ft 297 kts 140°
2026-04-12 06:05 -23.12730 -46.61987 9298 ft 294 kts 140°
2026-04-12 06:05 -23.14330 -46.60609 9249 ft 294 kts 140°
2026-04-12 06:05 -23.15939 -46.59224 9246 ft 295 kts 140°
2026-04-12 06:05 -23.17558 -46.57831 9248 ft 295 kts 140°
2026-04-12 06:06 -23.19195 -46.56522 9232 ft 296 kts 150°
2026-04-12 06:06 -23.21156 -46.55943 8866 ft 294 kts 181°
2026-04-12 06:06 -23.23123 -46.56475 8489 ft 291 kts 209°
2026-04-12 06:06 -23.24820 -46.57653 8275 ft 289 kts 216°
2026-04-12 06:07 -23.26476 -46.58905 8146 ft 291 kts 216°
2026-04-12 06:07 -23.28197 -46.60183 7832 ft 288 kts 214°
2026-04-12 06:07 -23.29861 -46.61391 7532 ft 287 kts 214°
2026-04-12 06:07 -23.31542 -46.62596 7228 ft 286 kts 213°
2026-04-12 06:08 -23.33200 -46.63778 6928 ft 285 kts 213°
2026-04-12 06:08 -23.34863 -46.64960 6625 ft 283 kts 213°
2026-04-12 06:08 -23.36487 -46.66114 6343 ft 279 kts 213°
2026-04-12 06:08 -23.38098 -46.67258 6267 ft 270 kts 213°
2026-04-12 06:09 -23.39629 -46.68346 6259 ft 260 kts 213°
2026-04-12 06:09 -23.41144 -46.69414 6253 ft 253 kts 210°
2026-04-12 06:09 -23.42763 -46.70000 5913 ft 247 kts 178°
2026-04-12 06:09 -23.44348 -46.69433 5468 ft 238 kts 137°
2026-04-12 06:10 -23.45213 -46.67996 5386 ft 224 kts 110°
2026-04-12 06:10 -23.45774 -46.66434 5234 ft 217 kts 111°
2026-04-12 06:10 -23.46415 -46.64955 4854 ft 213 kts 116°
2026-04-12 06:10 -23.47138 -46.63571 4557 ft 203 kts 120°
2026-04-12 06:11 -23.47611 -46.62251 4467 ft 176 kts 90°
2026-04-12 06:11 -23.47371 -46.60963 4489 ft 168 kts 70°
2026-04-12 06:11 -23.46955 -46.59793 4473 ft 166 kts 68°
2026-04-12 06:11 -23.46558 -46.58587 4319 ft 166 kts 71°
2026-04-12 06:12 -23.46218 -46.57394 4100 ft 163 kts 72°
2026-04-12 06:12 -23.45910 -46.56242 3871 ft 153 kts 73°
2026-04-12 06:12 -23.45613 -46.55133 3676 ft 154 kts 73°
2026-04-12 06:12 -23.45309 -46.54004 3472 ft 154 kts 73°
2026-04-12 06:13 -23.45006 -46.52885 3268 ft 154 kts 73°
2026-04-12 06:13 -23.44707 -46.51776 3066 ft 153 kts 73°
2026-04-12 06:13 -23.44344 -46.50432 2823 ft 153 kts 73°
2026-04-12 06:13 -23.44223 -46.49984 2735 ft 153 kts 73°